Time,TemperatureF,DewpointF,PressureIn,WindDirection,WindDirectionDegrees,WindSpeedMPH,WindSpeedGustMPH,Humidity,HourlyPrecipIn,Conditions,Clouds,dailyrainin,SoftwareType,DateUTC
2013-05-12 00:02:00,33.0,22.0,30.22,WNW,291,1.0,3.0,63,0.00,,,0.00,,2013-05-12 05:02:00,
2013-05-12 00:12:00,33.0,22.0,30.22,WNW,291,1.0,3.0,63,0.00,,,0.00,,2013-05-12 05:12:00,
2013-05-12 00:22:00,33.0,21.0,30.22,WNW,294,1.0,2.0,60,0.00,,,0.00,,2013-05-12 05:22:00,
2013-05-12 00:32:00,32.0,22.0,30.22,WNW,292,1.0,2.0,66,0.00,,,0.00,,2013-05-12 05:32:00,
2013-05-12 00:42:00,32.0,22.0,30.22,WNW,292,1.0,2.0,66,0.00,,,0.00,,2013-05-12 05:42:00,
2013-05-12 00:51:00,31.0,22.0,30.22,WNW,285,1.0,2.0,69,0.00,,,0.00,,2013-05-12 05:51:00,
2013-05-12 01:01:00,31.0,23.0,30.22,WNW,291,1.0,3.0,71,0.00,,,0.00,,2013-05-12 06:01:00,
2013-05-12 01:11:00,31.0,23.0,30.22,WNW,291,1.0,3.0,71,0.00,,,0.00,,2013-05-12 06:11:00,
2013-05-12 01:21:00,30.0,21.0,30.22,WNW,284,0.0,1.0,70,0.00,,,0.00,,2013-05-12 06:21:00,
2013-05-12 01:32:00,29.0,22.0,30.22,WNW,291,1.0,2.0,74,0.00,,,0.00,,2013-05-12 06:32:00,
2013-05-12 01:42:00,29.0,22.0,30.22,WNW,291,1.0,2.0,74,0.00,,,0.00,,2013-05-12 06:42:00,
2013-05-12 01:51:00,29.0,22.0,30.22,WNW,291,1.0,2.0,74,0.00,,,0.00,,2013-05-12 06:51:00,
2013-05-12 02:01:00,29.0,22.0,30.22,WNW,291,0.0,0.0,74,0.00,,,0.00,,2013-05-12 07:01:00,
2013-05-12 02:11:00,29.0,22.0,30.22,WNW,291,0.0,0.0,74,0.00,,,0.00,,2013-05-12 07:11:00,
2013-05-12 02:21:00,29.0,22.0,30.22,WNW,291,0.0,0.0,75,0.00,,,0.00,,2013-05-12 07:21:00,
2013-05-12 02:32:00,28.0,21.0,30.22,West,278,0.0,0.0,75,0.00,,,0.00,,2013-05-12 07:32:00,
2013-05-12 02:42:00,28.0,21.0,30.22,West,278,0.0,0.0,75,0.00,,,0.00,,2013-05-12 07:42:00,
2013-05-12 02:52:00,28.0,22.0,30.22,West,278,0.0,0.0,77,0.00,,,0.00,,2013-05-12 07:52:00,
2013-05-12 03:02:00,28.0,22.0,30.21,West,278,0.0,0.0,79,0.00,,,0.00,,2013-05-12 08:02:00,
2013-05-12 03:11:00,28.0,22.0,30.21,West,278,0.0,0.0,79,0.00,,,0.00,,2013-05-12 08:11:00,
2013-05-12 03:21:00,27.0,22.0,30.22,West,264,0.0,1.0,82,0.00,,,0.00,,2013-05-12 08:21:00,
2013-05-12 03:32:00,26.0,22.0,30.22,West,264,0.0,0.0,83,0.00,,,0.00,,2013-05-12 08:32:00,
2013-05-12 03:42:00,26.0,22.0,30.22,West,264,0.0,0.0,83,0.00,,,0.00,,2013-05-12 08:42:00,
2013-05-12 03:52:00,26.0,22.0,30.22,West,264,0.0,0.0,86,0.00,,,0.00,,2013-05-12 08:52:00,
2013-05-12 04:01:00,26.0,22.0,30.22,West,263,0.0,0.0,86,0.00,,,0.00,,2013-05-12 09:01:00,
2013-05-12 04:11:00,26.0,22.0,30.22,West,263,0.0,0.0,86,0.00,,,0.00,,2013-05-12 09:11:00,
2013-05-12 04:21:00,26.0,22.0,30.22,West,269,0.0,0.0,86,0.00,,,0.00,,2013-05-12 09:21:00,
2013-05-12 04:33:00,26.0,22.0,30.22,West,281,0.0,1.0,83,0.00,,,0.00,,2013-05-12 09:33:00,
2013-05-12 04:42:00,26.0,22.0,30.22,West,281,0.0,1.0,83,0.00,,,0.00,,2013-05-12 09:42:00,
2013-05-12 04:52:00,26.0,21.0,30.22,West,277,0.0,1.0,82,0.00,,,0.00,,2013-05-12 09:52:00,
2013-05-12 05:03:00,25.0,21.0,30.22,West,276,0.0,0.0,85,0.00,,,0.00,,2013-05-12 10:03:00,
2013-05-12 05:12:00,25.0,21.0,30.22,West,276,0.0,0.0,85,0.00,,,0.00,,2013-05-12 10:12:00,
2013-05-12 05:22:00,25.0,21.0,30.22,West,271,0.0,0.0,85,0.00,,,0.00,,2013-05-12 10:22:00,
2013-05-12 05:33:00,25.0,21.0,30.22,West,270,0.0,0.0,84,0.00,,,0.00,,2013-05-12 10:33:00,
2013-05-12 05:42:00,25.0,21.0,30.22,West,270,0.0,0.0,84,0.00,,,0.00,,2013-05-12 10:42:00,
2013-05-12 05:52:00,25.0,21.0,30.22,West,272,0.0,1.0,85,0.00,,,0.00,,2013-05-12 10:52:00,
2013-05-12 06:02:00,25.0,21.0,30.22,West,276,0.0,0.0,85,0.00,,,0.00,,2013-05-12 11:02:00,
2013-05-12 06:12:00,25.0,21.0,30.22,West,276,0.0,0.0,85,0.00,,,0.00,,2013-05-12 11:12:00,
2013-05-12 06:22:00,25.0,21.0,30.21,West,276,0.0,0.0,84,0.00,,,0.00,,2013-05-12 11:22:00,
2013-05-12 06:32:00,25.0,21.0,30.22,West,276,0.0,0.0,83,0.00,,,0.00,,2013-05-12 11:32:00,
2013-05-12 06:42:00,25.0,21.0,30.22,West,276,0.0,0.0,83,0.00,,,0.00,,2013-05-12 11:42:00,
2013-05-12 06:52:00,26.0,21.0,30.22,West,276,0.0,0.0,82,0.00,,,0.00,,2013-05-12 11:52:00,
2013-05-12 07:02:00,27.0,23.0,30.22,West,276,0.0,0.0,83,0.00,,,0.00,,2013-05-12 12:02:00,
2013-05-12 07:11:00,27.0,23.0,30.22,West,276,0.0,0.0,83,0.00,,,0.00,,2013-05-12 12:11:00,
2013-05-12 07:21:00,28.0,24.0,30.22,West,276,0.0,0.0,85,0.00,,,0.00,,2013-05-12 12:21:00,
2013-05-12 07:32:00,29.0,25.0,30.22,WSW,249,0.0,1.0,84,0.00,,,0.00,,2013-05-12 12:32:00,
2013-05-12 07:41:00,29.0,25.0,30.22,WSW,249,0.0,1.0,84,0.00,,,0.00,,2013-05-12 12:41:00,
2013-05-12 07:51:00,31.0,26.0,30.22,West,268,0.0,1.0,81,0.00,,,0.00,,2013-05-12 12:51:00,
2013-05-12 08:02:00,32.0,26.0,30.23,West,266,0.0,1.0,78,0.00,,,0.00,,2013-05-12 13:02:00,
2013-05-12 08:11:00,32.0,26.0,30.23,West,266,0.0,1.0,78,0.00,,,0.00,,2013-05-12 13:11:00,
2013-05-12 08:21:00,35.0,28.0,30.23,WSW,248,0.0,1.0,75,0.00,,,0.00,,2013-05-12 13:21:00,
2013-05-12 08:32:00,38.0,28.0,30.23,East,90,0.0,1.0,67,0.00,,,0.00,,2013-05-12 13:32:00,
2013-05-12 08:42:00,38.0,28.0,30.23,East,90,0.0,1.0,67,0.00,,,0.00,,2013-05-12 13:42:00,
2013-05-12 08:52:00,39.0,26.0,30.22,WSW,256,0.0,1.0,60,0.00,,,0.00,,2013-05-12 13:52:00,
2013-05-12 09:01:00,41.0,26.0,30.22,West,263,0.0,1.0,54,0.00,,,0.00,,2013-05-12 14:01:00,
2013-05-12 09:11:00,41.0,26.0,30.22,West,263,0.0,1.0,54,0.00,,,0.00,,2013-05-12 14:11:00,
2013-05-12 09:21:00,42.0,25.0,30.22,South,175,1.0,2.0,51,0.00,,,0.00,,2013-05-12 14:21:00,
2013-05-12 09:32:00,43.0,24.0,30.22,SW,221,1.0,4.0,47,0.00,,,0.00,,2013-05-12 14:32:00,
2013-05-12 09:42:00,44.0,23.0,30.22,SW,221,1.0,5.0,43,0.00,,,0.00,,2013-05-12 14:42:00,
2013-05-12 09:52:00,44.0,23.0,30.22,SW,221,1.0,5.0,43,0.00,,,0.00,,2013-05-12 14:52:00,
2013-05-12 10:01:00,44.0,23.0,30.22,SW,219,2.0,6.0,43,0.00,,,0.00,,2013-05-12 15:01:00,
2013-05-12 10:11:00,44.0,23.0,30.22,SW,219,2.0,6.0,43,0.00,,,0.00,,2013-05-12 15:11:00,
2013-05-12 10:21:00,45.0,24.0,30.22,WSW,252,4.0,6.0,43,0.00,,,0.00,,2013-05-12 15:21:00,
2013-05-12 10:34:00,46.0,23.0,30.21,SSW,204,4.0,7.0,40,0.00,,,0.00,,2013-05-12 15:34:00,
2013-05-12 10:42:00,46.0,23.0,30.21,SSW,204,4.0,7.0,40,0.00,,,0.00,,2013-05-12 15:42:00,
2013-05-12 10:52:00,48.0,24.0,30.21,SW,224,3.0,7.0,39,0.00,,,0.00,,2013-05-12 15:52:00,
2013-05-12 11:02:00,48.0,23.0,30.20,SSE,159,1.0,6.0,37,0.00,,,0.00,,2013-05-12 16:02:00,
2013-05-12 11:12:00,48.0,23.0,30.20,SSE,159,1.0,6.0,37,0.00,,,0.00,,2013-05-12 16:12:00,
2013-05-12 11:23:00,49.0,22.0,30.20,SSE,167,1.0,6.0,34,0.00,,,0.00,,2013-05-12 16:23:00,
2013-05-12 11:33:00,49.0,22.0,30.19,WNW,291,2.0,8.0,34,0.00,,,0.00,,2013-05-12 16:33:00,
2013-05-12 11:42:00,49.0,22.0,30.19,WNW,291,2.0,8.0,34,0.00,,,0.00,,2013-05-12 16:42:00,
2013-05-12 11:52:00,50.0,23.0,30.19,South,176,0.0,9.0,34,0.00,,,0.00,,2013-05-12 16:52:00,
2013-05-12 12:02:00,51.0,23.0,30.18,WNW,285,3.0,7.0,33,0.00,,,0.00,,2013-05-12 17:02:00,
2013-05-12 12:12:00,51.0,23.0,30.18,WNW,285,3.0,7.0,33,0.00,,,0.00,,2013-05-12 17:12:00,
2013-05-12 12:22:00,51.0,22.0,30.18,ESE,105,2.0,9.0,32,0.00,,,0.00,,2013-05-12 17:22:00,
2013-05-12 12:32:00,52.0,23.0,30.17,SSW,207,1.0,6.0,32,0.00,,,0.00,,2013-05-12 17:32:00,
2013-05-12 12:42:00,52.0,23.0,30.17,SSW,207,1.0,6.0,32,0.00,,,0.00,,2013-05-12 17:42:00,
2013-05-12 12:52:00,53.0,25.0,30.16,NNW,331,1.0,10.0,34,0.00,,,0.00,,2013-05-12 17:52:00,
2013-05-12 13:01:00,53.0,23.0,30.16,SSE,156,2.0,7.0,31,0.00,,,0.00,,2013-05-12 18:01:00,
2013-05-12 13:12:00,53.0,23.0,30.16,SSE,156,2.0,7.0,31,0.00,,,0.00,,2013-05-12 18:12:00,
2013-05-12 13:22:00,55.0,25.0,30.15,WSW,255,5.0,8.0,31,0.00,,,0.00,,2013-05-12 18:22:00,
2013-05-12 13:32:00,54.0,24.0,30.14,WSW,239,4.0,10.0,31,0.00,,,0.00,,2013-05-12 18:32:00,
2013-05-12 13:42:00,54.0,24.0,30.14,WSW,239,4.0,10.0,31,0.00,,,0.00,,2013-05-12 18:42:00,
2013-05-12 13:51:00,54.0,26.0,30.14,SW,214,3.0,9.0,33,0.00,,,0.00,,2013-05-12 18:51:00,
2013-05-12 14:01:00,55.0,25.0,30.13,West,277,3.0,8.0,31,0.00,,,0.00,,2013-05-12 19:01:00,
2013-05-12 14:11:00,55.0,25.0,30.13,West,277,3.0,8.0,31,0.00,,,0.00,,2013-05-12 19:11:00,
2013-05-12 14:21:00,55.0,24.0,30.12,WSW,249,1.0,11.0,30,0.00,,,0.00,,2013-05-12 19:21:00,
2013-05-12 14:32:00,56.0,23.0,30.11,WSW,242,5.0,10.0,28,0.00,,,0.00,,2013-05-12 19:32:00,
2013-05-12 14:42:00,56.0,23.0,30.11,WSW,242,5.0,10.0,28,0.00,,,0.00,,2013-05-12 19:42:00,
2013-05-12 14:52:00,56.0,23.0,30.10,WSW,255,3.0,8.0,28,0.00,,,0.00,,2013-05-12 19:52:00,
2013-05-12 15:02:00,57.0,24.0,30.10,NNW,341,0.0,8.0,28,0.00,,,0.00,,2013-05-12 20:02:00,
2013-05-12 15:11:00,57.0,24.0,30.10,NNW,341,0.0,8.0,28,0.00,,,0.00,,2013-05-12 20:11:00,
2013-05-12 15:21:00,58.0,24.0,30.10,SW,226,3.0,6.0,27,0.00,,,0.00,,2013-05-12 20:21:00,
2013-05-12 15:32:00,58.0,25.0,30.09,South,173,1.0,5.0,28,0.00,,,0.00,,2013-05-12 20:32:00,
2013-05-12 15:42:00,58.0,25.0,30.09,South,173,1.0,5.0,28,0.00,,,0.00,,2013-05-12 20:42:00,
2013-05-12 15:51:00,59.0,25.0,30.09,SW,228,3.0,7.0,27,0.00,,,0.00,,2013-05-12 20:51:00,
2013-05-12 16:01:00,59.0,25.0,30.08,SW,218,5.0,9.0,27,0.00,,,0.00,,2013-05-12 21:01:00,
2013-05-12 16:11:00,59.0,25.0,30.08,SW,218,5.0,9.0,27,0.00,,,0.00,,2013-05-12 21:11:00,
2013-05-12 16:21:00,59.0,23.0,30.07,ESE,115,1.0,7.0,25,0.00,,,0.00,,2013-05-12 21:21:00,
2013-05-12 16:33:00,60.0,24.0,30.06,SE,140,4.0,8.0,25,0.00,,,0.00,,2013-05-12 21:33:00,
2013-05-12 16:42:00,60.0,24.0,30.06,SE,140,4.0,8.0,25,0.00,,,0.00,,2013-05-12 21:42:00,
2013-05-12 16:52:00,60.0,25.0,30.06,NW,304,4.0,7.0,26,0.00,,,0.00,,2013-05-12 21:52:00,
2013-05-12 17:02:00,60.0,26.0,30.04,ENE,74,1.0,4.0,27,0.00,,,0.00,,2013-05-12 22:02:00,
2013-05-12 17:12:00,60.0,26.0,30.04,ENE,74,1.0,4.0,27,0.00,,,0.00,,2013-05-12 22:12:00,
2013-05-12 17:23:00,61.0,28.0,30.04,NE,46,4.0,7.0,28,0.00,,,0.00,,2013-05-12 22:23:00,
2013-05-12 17:33:00,61.0,26.0,30.03,NNE,18,4.0,8.0,26,0.00,,,0.00,,2013-05-12 22:33:00,
2013-05-12 17:42:00,61.0,26.0,30.03,NNE,18,4.0,8.0,26,0.00,,,0.00,,2013-05-12 22:42:00,
2013-05-12 17:52:00,61.0,25.0,30.03,ESE,105,1.0,4.0,25,0.00,,,0.00,,2013-05-12 22:52:00,
2013-05-12 18:02:00,62.0,24.0,30.03,NE,41,2.0,6.0,23,0.00,,,0.00,,2013-05-12 23:02:00,
2013-05-12 18:12:00,62.0,24.0,30.03,NE,41,2.0,6.0,23,0.00,,,0.00,,2013-05-12 23:12:00,
2013-05-12 18:22:00,62.0,20.0,30.02,WSW,248,5.0,8.0,20,0.00,,,0.00,,2013-05-12 23:22:00,
2013-05-12 18:32:00,62.0,20.0,30.02,WNW,284,2.0,7.0,20,0.00,,,0.00,,2013-05-12 23:32:00,
2013-05-12 18:42:00,62.0,20.0,30.02,WNW,284,2.0,7.0,20,0.00,,,0.00,,2013-05-12 23:42:00,
2013-05-12 18:52:00,61.0,22.0,30.02,NE,42,1.0,4.0,22,0.00,,,0.00,,2013-05-12 23:52:00,
2013-05-12 19:01:00,62.0,22.0,30.01,NW,304,1.0,4.0,21,0.00,,,0.00,,2013-05-13 00:01:00,
2013-05-12 19:11:00,62.0,22.0,30.01,NW,304,1.0,4.0,21,0.00,,,0.00,,2013-05-13 00:11:00,
2013-05-12 19:21:00,61.0,20.0,30.00,SE,146,1.0,4.0,20,0.00,,,0.00,,2013-05-13 00:21:00,
2013-05-12 19:32:00,59.0,23.0,30.00,NW,305,1.0,4.0,25,0.00,,,0.00,,2013-05-13 00:32:00,
2013-05-12 19:42:00,59.0,23.0,30.00,NW,305,1.0,4.0,25,0.00,,,0.00,,2013-05-13 00:42:00,
2013-05-12 19:51:00,59.0,23.0,29.99,East,82,0.0,1.0,25,0.00,,,0.00,,2013-05-13 00:51:00,
2013-05-12 20:01:00,58.0,28.0,29.99,ENE,58,1.0,3.0,32,0.00,,,0.00,,2013-05-13 01:01:00,
2013-05-12 20:11:00,58.0,28.0,29.99,ENE,58,1.0,3.0,32,0.00,,,0.00,,2013-05-13 01:11:00,
2013-05-12 20:22:00,58.0,29.0,29.98,East,82,2.0,4.0,33,0.00,,,0.00,,2013-05-13 01:22:00,
2013-05-12 20:31:00,58.0,31.0,29.98,East,79,2.0,4.0,36,0.00,,,0.00,,2013-05-13 01:31:00,
2013-05-12 20:42:00,58.0,31.0,29.98,East,79,2.0,4.0,36,0.00,,,0.00,,2013-05-13 01:42:00,
2013-05-12 20:52:00,57.0,30.0,29.98,East,97,3.0,4.0,35,0.00,,,0.00,,2013-05-13 01:52:00,
2013-05-12 21:01:00,56.0,30.0,29.98,East,95,2.0,4.0,37,0.00,,,0.00,,2013-05-13 02:01:00,
2013-05-12 21:11:00,56.0,30.0,29.98,East,95,2.0,4.0,37,0.00,,,0.00,,2013-05-13 02:11:00,
2013-05-12 21:21:00,55.0,30.0,29.98,East,89,3.0,4.0,38,0.00,,,0.00,,2013-05-13 02:21:00,
2013-05-12 21:32:00,55.0,30.0,29.97,ESE,109,3.0,4.0,38,0.00,,,0.00,,2013-05-13 02:32:00,
2013-05-12 21:41:00,55.0,30.0,29.97,ESE,109,3.0,4.0,38,0.00,,,0.00,,2013-05-13 02:41:00,
2013-05-12 21:51:00,54.0,30.0,29.97,East,101,3.0,5.0,39,0.00,,,0.00,,2013-05-13 02:51:00,
2013-05-12 22:02:00,54.0,30.0,29.97,ESE,122,3.0,5.0,39,0.00,,,0.00,,2013-05-13 03:02:00,
2013-05-12 22:11:00,54.0,30.0,29.97,ESE,122,3.0,5.0,39,0.00,,,0.00,,2013-05-13 03:11:00,
2013-05-12 22:21:00,54.0,28.0,29.97,ESE,110,4.0,6.0,37,0.00,,,0.00,,2013-05-13 03:21:00,
2013-05-12 22:32:00,53.0,27.0,29.97,ESE,113,3.0,5.0,37,0.00,,,0.00,,2013-05-13 03:32:00,
2013-05-12 22:42:00,53.0,27.0,29.97,ESE,113,3.0,5.0,37,0.00,,,0.00,,2013-05-13 03:42:00,
2013-05-12 22:52:00,53.0,28.0,29.97,ESE,103,4.0,6.0,38,0.00,,,0.00,,2013-05-13 03:52:00,
2013-05-12 23:02:00,52.0,28.0,29.96,ESE,119,4.0,8.0,39,0.00,,,0.00,,2013-05-13 04:02:00,
2013-05-12 23:12:00,52.0,28.0,29.96,ESE,119,4.0,8.0,39,0.00,,,0.00,,2013-05-13 04:12:00,
2013-05-12 23:23:00,52.0,28.0,29.96,ESE,119,4.0,7.0,40,0.00,,,0.00,,2013-05-13 04:23:00,
2013-05-12 23:32:00,51.0,29.0,29.95,ESE,122,3.0,7.0,42,0.00,,,0.00,,2013-05-13 04:32:00,
2013-05-12 23:42:00,51.0,29.0,29.95,ESE,122,3.0,7.0,42,0.00,,,0.00,,2013-05-13 04:42:00,
2013-05-12 23:52:00,51.0,28.0,29.95,ESE,119,4.0,8.0,40,0.00,,,0.00,,2013-05-13 04:52:00,